GW2619 Weather Reports


Display with metric or nautical units.
time (UTC)temp
F
wind
direction
speed
MPH
gust
MPH
rain 1hr
in
rain 24hr
in
rain mn
in
humidity
%
barometer
mb
20260507024508 55 277 3.0 10.0 0.00 0.00 0.00 86 1022.5
20260507020007 56 310 4.0 8.0 0.00 0.00 0.00 86 1022.4
20260507014508 56 36 2.0 5.0 0.00 0.00 0.00 86 1022.4
20260507013005 56 284 4.0 9.0 0.00 0.00 0.00 85 1022.6
20260507011505 56 319 4.0 8.0 0.00 0.00 0.00 84 1022.6
20260507010007 56 330 3.0 8.0 0.00 0.00 0.00 85 1022.7
20260507004508 57 316 3.0 8.0 0.00 0.00 0.00 85 1022.6
20260507003005 57 324 2.0 8.0 0.00 0.00 0.00 85 1022.7
20260507001506 57 315 3.0 8.0 0.00 0.00 0.00 85 1022.8
20260507000011 57 297 4.0 8.0 0.00 0.00 0.00 84 1022.8
20260506233006 57 315 3.0 9.0 0.00 0.00 0.00 85 1023.0
20260506231507 56 233 3.0 9.0 0.00 0.00 0.00 85 1023.1
20260506230009 56 280 5.0 9.0 0.00 0.00 0.00 84 1023.2
20260506224503 57 276 3.0 9.0 0.00 0.00 0.00 83 1023.2
20260506223005 57 267 2.0 5.0 0.00 0.00 0.00 84 1023.3
20260506221506 57 245 3.0 7.0 0.00 0.00 0.00 81 1023.4
20260506220006 58 237 4.0 8.0 0.00 0.00 0.00 80 1023.3
20260506214506 58 226 5.0 9.0 0.00 0.00 0.00 80 1023.1
20260506211505 57 218 4.0 7.0 0.00 0.00 0.00 80 1023.1
20260506210009 57 235 4.0 9.0 0.00 0.00 0.00 79 1023.1
20260506204512 57 240 5.0 9.0 0.00 0.00 0.00 79 1023.1
20260506203006 57 218 5.0 8.0 0.00 0.00 0.00 79 1023.0
20260506201506 57 231 4.0 8.0 0.00 0.00 0.00 79 1022.9
20260506200008 57 208 3.0 7.0 0.00 0.00 0.00 79 1022.9
20260506194507 57 274 4.0 7.0 0.00 0.00 0.00 79 1023.0
20260506193004 57 210 6.0 8.0 0.00 0.00 0.00 79 1023.0
20260506191505 57 239 2.0 7.0 0.00 0.00 0.00 80 1022.9
20260506190008 56 231 5.0 9.0 0.00 0.00 0.00 80 1023.0
20260506184504 56 235 4.0 7.0 0.00 0.00 0.00 81 1022.8
20260506183007 56 228 6.0 10.0 0.00 0.00 0.00 81 1022.8
20260506181504 56 231 6.0 8.0 0.00 0.00 0.00 81 1022.7
20260506180005 56 239 4.0 8.0 0.00 0.00 0.00 82 1022.6
20260506173007 56 293 2.0 4.0 0.00 0.00 0.00 82 1022.2
20260506171504 56 213 2.0 4.0 0.00 0.00 0.00 82 1022.0
20260506170006 56 205 2.0 3.0 0.00 0.00 0.00 82 1021.9
20260506164503 56 205 1.0 4.0 0.00 0.00 0.00 82 1021.8
20260506163003 56 81 2.0 4.0 0.00 0.00 0.00 82 1021.6
20260506160005 55 260 2.0 4.0 0.00 0.00 0.00 84 1021.7
20260506154503 55 218 2.0 6.0 0.00 0.00 0.00 86 1021.7
20260506153004 54 134 1.0 3.0 0.00 0.00 0.00 88 1021.3
20260506151503 54 206 1.0 5.0 0.00 0.00 0.00 88 1021.5
20260506150007 54 110 1.0 4.0 0.00 0.00 0.00 90 1021.3
20260506144503 53 79 3.0 6.0 0.00 0.00 0.00 90 1021.0
20260506143006 53 108 2.0 6.0 0.00 0.00 0.00 90 1021.0
20260506141505 53 113 0.0 8.0 0.00 0.00 0.00 90 1021.2
20260506140005 53 64 0.0 1.0 0.00 0.00 0.00 90 1021.4
20260506134502 53 233 1.0 3.0 0.00 0.00 0.00 90 1021.3
20260506133006 53 233 2.0 3.0 0.00 0.00 0.00 90 1021.2
20260506131502 53 233 2.0 3.0 0.00 0.00 0.00 90 1020.9
20260506124506 53 233 1.0 3.0 0.00 0.00 0.00 90 1020.7
20260506123003 53 233 1.0 2.0 0.00 0.00 0.00 90 1020.5
20260506120008 53 233 0.0 1.0 0.00 0.00 0.00 90 1020.4
20260506114503 53 233 0.0 1.0 0.00 0.00 0.00 90 1020.3
20260506113003 53 233 1.0 3.0 0.00 0.00 0.00 90 1020.1
20260506111505 53 233 1.0 5.0 0.00 0.00 0.00 89 1020.2
20260506110005 53 233 3.0 5.0 0.00 0.00 0.00 89 1020.2
20260506104502 53 233 3.0 6.0 0.00 0.00 0.00 89 1020.1
20260506103002 53 233 3.0 5.0 0.00 0.00 0.00 88 1020.1
20260506101502 54 233 2.0 5.0 0.00 0.00 0.00 88 1019.8
20260506094502 54 256 1.0 3.0 0.00 0.00 0.00 88 1019.8
20260506093002 54 236 2.0 4.0 0.00 0.00 0.00 87 1019.6
20260506091503 54 235 2.0 4.0 0.00 0.00 0.00 87 1019.4
20260506084501 54 226 4.0 5.0 0.00 0.00 0.00 87 1019.4
20260506081502 54 279 2.0 5.0 0.00 0.00 0.00 87 1019.1
20260506073008 55 272 1.0 3.0 0.00 0.00 0.00 86 1018.8
20260506061506 55 272 2.0 3.0 0.00 0.00 0.00 85 1018.4
20260506044508 55 272 2.0 3.0 0.00 0.00 0.00 84 1018.3
20260506043006 56 272 2.0 4.0 0.00 0.00 0.00 84 1018.1
20260506040006 56 293 2.0 4.0 0.00 0.00 0.00 83 1017.9
20260506034504 56 307 2.0 5.0 0.00 0.00 0.00 83 1017.7
20260506033022 56 314 2.0 3.0 0.00 0.00 0.00 83 1017.6
20260506031505 56 293 2.0 5.0 0.00 0.00 0.00 82 1017.3